Location: Bogis-Bossey
(46.3500°N, 6.1667°E)
Time: 18:37:56
(UTC+00:00)

Cosmos 1844 - Pass Details

Date: 17 August 2022
Orbit: 824 x 866 km, 70.9° (Epoch: 01 October)

Event Time Altitude Azimuth Distance (km) Brightness Sun altitude
Rises 19:55:19 0° 199° (SSW) 3,430 6.7 -12.1°
Reaches altitude 10° 19:57:46 10° 198° (SSW) 2,494 6.0 -12.5°
Maximum altitude 20:03:29 75° 114° (ESE) 889 3.7 -13.3°
Drops below altitude 10° 20:09:12 10° 30° (NNE) 2,487 6.2 -14.1°
Sets 20:11:39 0° 29° (NNE) 3,420 7.0 -14.4°
